| time (UTC) | temp C | wind direction | speed KPH | gust KPH | rain 1hr cm | rain 24hr cm | rain mn cm | humidity % | barometer mb |
| 20260503201601 | 22 | 123 | 3.2 | 17.7 | 0.00 | 0.03 | 0.03 | 57 | 1017.1 |
| 20260503200105 | 22 | 92 | 3.2 | 12.9 | 0.00 | 0.03 | 0.03 | 57 | 1017.2 |
| 20260503194559 | 21 | 76 | 3.2 | 12.9 | 0.00 | 0.03 | 0.03 | 60 | 1017.4 |
| 20260503193102 | 21 | 37 | 3.2 | 14.5 | 0.00 | 0.03 | 0.03 | 62 | 1017.7 |
| 20260503191558 | 22 | 40 | 3.2 | 20.9 | 0.00 | 0.03 | 0.03 | 60 | 1017.9 |
| 20260503190108 | 22 | 87 | 3.2 | 14.5 | 0.00 | 0.03 | 0.03 | 56 | 1018.1 |
| 20260503184604 | 22 | 0 | 3.2 | 14.5 | 0.00 | 0.03 | 0.03 | 59 | 1018.2 |
| 20260503183055 | 22 | 34 | 3.2 | 19.3 | 0.00 | 0.03 | 0.03 | 57 | 1018.2 |
| 20260503181601 | 22 | 319 | 3.2 | 14.5 | 0.00 | 0.03 | 0.03 | 61 | 1018.3 |
| 20260503180055 | 22 | 11 | 4.8 | 14.5 | 0.00 | 0.03 | 0.03 | 62 | 1018.4 |
| 20260503174555 | 21 | 62 | 3.2 | 17.7 | 0.00 | 0.20 | 0.03 | 62 | 1018.5 |
| 20260503173100 | 21 | 0 | 4.8 | 14.5 | 0.00 | 0.20 | 0.03 | 64 | 1018.6 |
| 20260503171553 | 22 | 65 | 3.2 | 12.9 | 0.00 | 0.20 | 0.03 | 64 | 1018.7 |
| 20260503100108 | 13 | 281 | 1.6 | 4.8 | 0.00 | 1.17 | 0.00 | 97 | 1016.2 |
| 20260503081559 | 14 | 303 | 1.6 | 6.4 | 0.00 | 1.17 | 0.00 | 97 | 1015.6 |
| 20260503071553 | 15 | 291 | 3.2 | 9.7 | 0.00 | 1.17 | 0.00 | 97 | 1015.4 |
| 20260503060116 | 15 | 259 | 0.0 | 4.8 | 0.00 | 1.17 | 0.00 | 96 | 1014.9 |
| 20260503054602 | 15 | 0 | 0.0 | 1.6 | 0.00 | 1.17 | 0.00 | 96 | 1014.9 |
| 20260503053055 | 15 | 292 | 0.0 | 4.8 | 0.00 | 1.17 | 0.00 | 96 | 1014.8 |
| 20260503051550 | 15 | 310 | 1.6 | 6.4 | 0.00 | 1.17 | 0.00 | 96 | 1014.6 |
| 20260503050052 | 15 | 300 | 1.6 | 6.4 | 0.00 | 1.17 | 0.00 | 96 | 1014.6 |
| 20260503044550 | 15 | 0 | 0.0 | 6.4 | 0.00 | 1.17 | 0.00 | 96 | 1014.6 |
| 20260503043055 | 15 | 270 | 1.6 | 4.8 | 0.00 | 1.17 | 0.00 | 96 | 1014.4 |
| 20260503041552 | 15 | 304 | 1.6 | 6.4 | 0.00 | 1.17 | 0.00 | 95 | 1014.1 |
| 20260503040055 | 16 | 263 | 1.6 | 3.2 | 0.00 | 1.17 | 0.00 | 95 | 1013.9 |
| 20260503034551 | 16 | 0 | 0.0 | 11.3 | 0.00 | 1.17 | 1.17 | 95 | 1013.9 |
| 20260503033100 | 16 | 0 | 1.6 | 9.7 | 0.00 | 1.17 | 1.17 | 95 | 1013.7 |
| 20260503031552 | 16 | 271 | 1.6 | 9.7 | 0.00 | 1.17 | 1.17 | 94 | 1013.6 |
| 20260503030052 | 16 | 269 | 0.0 | 4.8 | 0.00 | 1.17 | 1.17 | 94 | 1013.4 |
| 20260503024552 | 16 | 0 | 1.6 | 4.8 | 0.00 | 1.17 | 1.17 | 93 | 1013.1 |
| 20260503023100 | 16 | 0 | 0.0 | 6.4 | 0.00 | 1.17 | 1.17 | 93 | 1013.0 |
| 20260503021556 | 16 | 0 | 0.0 | 4.8 | 0.00 | 1.17 | 1.17 | 93 | 1013.0 |
| 20260503020053 | 16 | 0 | 0.0 | 3.2 | 0.00 | 1.17 | 1.17 | 93 | 1013.0 |
| 20260503014600 | 16 | 140 | 0.0 | 6.4 | 0.00 | 1.17 | 1.17 | 94 | 1012.7 |
| 20260503013053 | 16 | 0 | 1.6 | 9.7 | 0.00 | 1.17 | 1.17 | 94 | 1012.4 |
| 20260503011555 | 16 | 311 | 1.6 | 9.7 | 0.00 | 1.17 | 1.17 | 94 | 1012.2 |
| 20260503010054 | 16 | 317 | 1.6 | 11.3 | 0.00 | 1.17 | 1.17 | 94 | 1012.2 |
| 20260503004552 | 16 | 351 | 0.0 | 6.4 | 0.00 | 1.17 | 1.17 | 95 | 1012.1 |
| 20260503003056 | 16 | 352 | 1.6 | 8.0 | 0.00 | 1.17 | 1.17 | 95 | 1011.5 |
| 20260503001611 | 16 | 313 | 1.6 | 19.3 | 0.00 | 1.17 | 1.17 | 95 | 1011.3 |
| 20260503000112 | 17 | 291 | 3.2 | 12.9 | 0.00 | 1.17 | 1.17 | 95 | 1010.9 |
| 20260502234603 | 17 | 346 | 3.2 | 16.1 | 0.00 | 1.17 | 1.17 | 94 | 1010.9 |
| 20260502233056 | 18 | 350 | 3.2 | 14.5 | 0.00 | 1.17 | 1.17 | 94 | 1010.6 |
| 20260502231610 | 18 | 317 | 3.2 | 14.5 | 0.00 | 1.17 | 1.17 | 93 | 1010.0 |
| 20260502230057 | 18 | 304 | 4.8 | 16.1 | 0.00 | 1.17 | 1.17 | 92 | 1010.0 |
| 20260502224556 | 19 | 328 | 4.8 | 14.5 | 0.00 | 1.17 | 1.17 | 91 | 1009.6 |
| 20260502223055 | 20 | 352 | 4.8 | 11.3 | 0.00 | 1.17 | 1.17 | 88 | 1008.8 |
| 20260502221553 | 21 | 346 | 1.6 | 11.3 | 0.00 | 1.17 | 1.17 | 88 | 1008.6 |
| 20260502220057 | 21 | 269 | 3.2 | 17.7 | 0.00 | 1.17 | 1.17 | 88 | 1008.5 |
| 20260502214556 | 20 | 329 | 1.6 | 9.7 | 0.00 | 1.17 | 1.17 | 89 | 1008.5 |
| 20260502213105 | 20 | 286 | 1.6 | 16.1 | 0.00 | 1.17 | 1.17 | 90 | 1008.0 |
| 20260502211555 | 20 | 304 | 4.8 | 12.9 | 0.00 | 1.17 | 1.17 | 91 | 1008.2 |
| 20260502210056 | 20 | 321 | 4.8 | 16.1 | 0.00 | 1.17 | 1.17 | 91 | 1008.2 |
| 20260502204616 | 20 | 271 | 8.0 | 17.7 | 0.00 | 1.17 | 1.17 | 93 | 1008.2 |
| 20260502203105 | 19 | 323 | 4.8 | 16.1 | 0.00 | 1.17 | 1.17 | 94 | 1008.5 |